STARLINK-32405, 61636

Orbit data source: Space-Track

STARLINK-32405, 61636 is a payload satellite owned by SpaceX/Seattle (US) in LEO that was launched on Wed, 23 Oct 2024 UTC via an FALCON 9 launch vehicle from the Air Force Eastern Test Range (AFETR). Payload-class satellites include a variety of spacecraft equipped with specific instruments for various scientific and technological missions. These include communications satellites like Starlink; space stations such as the ISS; scientific satellites like the Hubble; Earth observation satellites from companies like Planet Labs, Umbra, and HawkEye 360; GPS; miniature CubeSats for education and research; and military/defense satellites.

Loading next visibility...
Identifier
61636, 2024-191R
Orbit
LEO
Country
Flag of USUS
Related business
Manufacturer
SpaceX/Seattle
Mission
Operational Commercial Communications
Bus & Motor
STARLINK V2M, Unknown motor
Mass
730 kg wet, ~700 kg dry
Launch date (UTC)
2024-10-23 (1 year ago)
Launch vehicle
FALCON 9
Launch site
Air Force Eastern Test Range (AFETR)
Object type
Payload
Rocket body
Debris
Shape & HBR
Box + 2 Pan, 17.7 m
Radar Cross Section
33.884 m², Large (>1 m²)

Expand to show TLE details & history
Last TLE update: 18 hours ago

TLE from 18 hours ago
0 STARLINK-32405
1 61636U 24191R   26062.42312647 -.00000608  00000-0 -12564-4 0  9992
2 61636  43.0041 193.7392 0001654 269.9605  90.1057 15.27576348 76534
Epoch: 2026-03-03T10:09Z
TLE epoch observation values (Epoch: 2026-03-03T10:09:18.127Z)
Latitude
-0.00005°
Longitude
-119.78878°
Altitude
482.838 km
Speed
7.626 km/s
True Right ascension
12h 54m 57s
True Declination
0° 00' 00"
Sunlit
Object was in full shadow at epoch
Visualization orbit readout
Latitude
Unknown
Longitude
Unknown
Altitude
Unknown
Speed
Unknown
Apparent Right ascension
Unknown
Apparent Declination
Unknown
Sunlit
N/A
Visualization observer readout
Local Sidereal Time
08:00:17
Azimuth
Unknown
Elevation
Unknown
Doppler factor
Unknown
Orbital elements
Apogee altitude
486.14 km
Perigee altitude
483.869 km
Semi-major axis
6,863.142 km
Eccentricity
0.00017
Inclination
43.0041°
RAAN
193.7392°
Arg. of periapsis
269.9605°
True anomaly
90.12465°
Mean anomaly
90.1057°
Eccentric anomaly
90.11518°
Mean motion
3.81732 °/min
Orbital period
94.31 mins
BSTAR
-0.000012564
Loading maneuver chart data...
Computing Atmospheric mass density...
Loading historical data...
Loading historical data...
Loading historical data...
Loading historical data...
Loading historical data...
Loading historical data...
Loading historical data...

Documentation

Showing up to 5 results
|